This demonstration page uses our WeatherBlox Daily Observations layout. Learn more.

Left ArrowRight Arrow

34.16533, -84.80231

Hourly Observations for February 25, 2022

Temp ( °F °C ) Dew Point ( °F °C ) Humidity (%) Winds ( mph kmh ) Pressure ( in mb ) Visibility ( mi km ) Precip ( " mm )
12:15 am 00:15 Mostly Cloudy 66 19 57 14 73 73 S 8 13 30.11 1020 10 16 0.00 0.00
12:35 am 00:35 Mostly Cloudy 66 19 57 14 73 73 S 7 11 30.11 1020 10 16 0.00 0.00
12:55 am 00:55 Mostly Cloudy 66 19 57 14 73 73 SSW 5 7 30.11 1020 10 16 0.00 0.00
1:15 am 01:15 Mostly Cloudy 64 18 57 14 78 78 Calm 30.12 1020 10 16 0.00 0.00
1:35 am 01:35 Cloudy 66 19 59 15 78 78 VRB 6 9 30.12 1020 10 16 0.00 0.00
1:55 am 01:55 Mostly Cloudy 66 19 59 15 78 78 SSW 7 11 30.12 1020 10 16 0.00 0.00
2:15 am 02:15 Cloudy 66 19 59 15 78 78 SSW 6 9 30.12 1020 10 16 0.00 0.00
2:35 am 02:35 Cloudy 66 19 59 15 78 78 SSW 7 11 30.12 1020 10 16 0.00 0.00
2:55 am 02:55 Cloudy 66 19 59 15 78 78 S 7 11 30.11 1020 10 16 0.00 0.00
3:15 am 03:15 Cloudy 66 19 59 15 78 78 SSW 6 9 30.11 1020 10 16 0.00 0.00
3:35 am 03:35 Cloudy 66 19 61 16 83 83 SSW 8 13 30.11 1020 10 16 0.00 0.00
3:55 am 03:55 Cloudy 64 18 61 16 88 88 SSW 7 11 30.11 1020 10 16 0.00 0.00
4:15 am 04:15 Cloudy 64 18 61 16 88 88 S 6 9 30.11 1020 10 16 0.00 0.00
4:35 am 04:35 Cloudy 64 18 61 16 88 88 SSW 3 6 30.11 1020 10 16 0.00 0.00
4:55 am 04:55 Cloudy 64 18 61 16 88 88 VRB 6 9 30.11 1020 10 16 0.00 0.00
5:15 am 05:15 Cloudy 64 18 61 16 88 88 VRB 5 7 30.12 1020 9 14 0.00 0.00
5:35 am 05:35 Mostly Cloudy with Light Rain 64 18 61 16 88 88 SSW 8 13 30.11 1020 8 13 0.00 0.00
5:55 am 05:55 Cloudy 64 18 63 17 94 94 VRB 5 7 30.12 1020 10 16 0.01 0.25
6:15 am 06:15 Mostly Cloudy 64 18 61 16 88 88 VRB 5 7 30.13 1020 10 16 0.00 0.00
6:35 am 06:35 Cloudy with Light Rain 64 18 63 17 94 94 W 10 17 30.15 1021 6 10 0.00 0.00
6:55 am 06:55 Cloudy 63 17 59 15 88 88 W 10 17 30.17 1022 10 16 0.00 0.00
7:15 am 07:15 Cloudy with Light Rain 61 16 59 15 94 94 W 10 17 30.19 1022 4 6 0.00 0.00
7:35 am 07:35 Cloudy with Light Rain 59 15 57 14 94 94 WNW 9 15 30.22 1023 3 4 0.00 0.00
7:55 am 07:55 Cloudy with Light Rain 57 14 55 13 94 94 W 9 15 30.24 1024 3 5 0.00 0.00
8:15 am 08:15 Cloudy with Light Rain 57 14 55 13 94 94 WNW 14 22 30.25 1024 1 2 0.00 0.00
8:35 am 08:35 Mostly Cloudy 55 13 54 12 94 94 W 10 17 30.26 1025 8 13 0.00 0.00
8:55 am 08:55 Cloudy 55 13 54 12 94 94 W 10 17 30.26 1025 9 14 0.03 0.76
9:15 am 09:15 Cloudy 55 13 54 12 94 94 W 8 13 30.27 1025 10 16 0.00 0.00
9:35 am 09:35 Cloudy 55 13 54 12 94 94 W 12 19 30.28 1025 9 14 0.00 0.00
9:55 am 09:55 Cloudy with Light Rain 55 13 52 11 88 88 WNW 8 13 30.28 1025 4 6 0.00 0.00
10:15 am 10:15 Cloudy 54 12 52 11 94 94 W 9 15 30.29 1026 10 16 0.00 0.00
10:35 am 10:35 Cloudy 54 12 48 9 82 82 NW 10 17 30.30 1026 10 16 0.00 0.00
10:55 am 10:55 Cloudy 54 12 48 9 82 82 WNW 9 15 30.30 1026 10 16 0.00 0.00
11:15 am 11:15 Cloudy 54 12 50 10 88 88 W 12 19 30.32 1027 10 16 0.00 0.00
11:35 am 11:35 Cloudy 54 12 48 9 82 82 WNW 8 13 30.33 1027 10 16 0.00 0.00
11:55 am 11:55 Cloudy 55 13 48 9 77 77 W 10 17 30.33 1027 9 14 0.00 0.00
12:15 pm 12:15 Cloudy 55 13 48 9 77 77 WNW 7 11 30.32 1027 10 16 0.00 0.00
12:35 pm 12:35 Partly Cloudy 55 13 45 7 67 67 WNW 10 17 30.32 1027 10 16 0.00 0.00
12:55 pm 12:55 Mostly Cloudy 57 14 45 7 63 63 NNW 8 13 30.31 1026 10 16 0.00 0.00
1:15 pm 13:15 Cloudy 57 14 45 7 63 63 VRB 7 11 30.31 1026 10 16 0.00 0.00
1:35 pm 13:35 Partly Cloudy 57 14 45 7 63 63 WNW 12 19 30.30 1026 10 16 0.00 0.00
1:55 pm 13:55 Sunny 57 14 45 7 63 63 NW 8 13 30.29 1026 10 16 0.00 0.00
2:15 pm 14:15 Sunny 59 15 43 6 55 55 WNW 10 17 30.29 1026 10 16 0.00 0.00
2:35 pm 14:35 Sunny 57 14 41 5 55 55 WNW 9 15 30.29 1026 10 16 0.00 0.00
2:55 pm 14:55 Sunny 57 14 41 5 55 55 VRB 7 11 30.29 1026 10 16 0.00 0.00
3:15 pm 15:15 Sunny 57 14 41 5 55 55 WNW 13 20 30.30 1026 10 16 0.00 0.00
3:35 pm 15:35 Sunny 57 14 41 5 55 55 W 12 19 30.30 1026 10 16 0.00 0.00
3:55 pm 15:55 Sunny 57 14 41 5 55 55 WNW 12 19 30.31 1026 10 16 0.00 0.00
4:15 pm 16:15 Sunny 57 14 39 4 51 51 W 7 11 30.31 1026 10 16 0.00 0.00
4:35 pm 16:35 Sunny 57 14 39 4 51 51 VRB 7 11 30.31 1026 10 16 0.00 0.00
4:55 pm 16:55 Sunny 57 14 37 3 48 48 NW 8 13 30.32 1027 10 16 0.00 0.00
5:15 pm 17:15 Sunny 57 14 37 3 48 48 WNW 8 13 30.31 1026 10 16 0.00 0.00
5:35 pm 17:35 Sunny 55 13 39 4 55 55 VRB 6 9 30.32 1027 10 16 0.00 0.00
5:55 pm 17:55 Sunny 54 12 39 4 58 58 VRB 3 6 30.32 1027 10 16 0.00 0.00
6:15 pm 18:15 Sunny 52 11 37 3 58 58 VRB 7 11 30.34 1027 10 16 0.00 0.00
6:35 pm 18:35 Clear 50 10 37 3 62 62 VRB 7 11 30.35 1028 10 16 0.00 0.00
6:55 pm 18:55 Mostly Clear 50 10 36 2 58 58 Calm 30.35 1028 10 16 0.00 0.00
7:15 pm 19:15 Clear 50 10 36 2 58 58 VRB 3 6 30.35 1028 10 16 0.00 0.00
7:35 pm 19:35 Clear 48 9 36 2 62 62 VRB 5 7 30.36 1028 10 16 0.00 0.00
7:55 pm 19:55 Clear 48 9 36 2 62 62 NNW 6 9 30.36 1028 10 16 0.00 0.00
8:15 pm 20:15 Clear 48 9 36 2 62 62 Calm 30.36 1028 10 16 0.00 0.00
8:35 pm 20:35 Clear 46 8 36 2 66 66 VRB 5 7 30.36 1028 10 16 0.00 0.00
8:55 pm 20:55 Clear 46 8 36 2 66 66 VRB 5 7 30.38 1029 10 16 0.00 0.00
9:15 pm 21:15 Clear 46 8 36 2 66 66 Calm 30.39 1029 10 16 0.00 0.00
9:35 pm 21:35 Clear 45 7 36 2 71 71 Calm 30.39 1029 10 16 0.00 0.00
9:55 pm 21:55 Clear 45 7 36 2 71 71 VRB 5 7 30.40 1029 10 16 0.00 0.00
10:15 pm 22:15 Clear 45 7 36 2 71 71 VRB 6 9 30.40 1029 10 16 0.00 0.00
10:35 pm 22:35 Clear 43 6 34 1 71 71 VRB 5 7 30.41 1030 10 16 0.00 0.00
10:55 pm 22:55 Partly Cloudy 41 5 34 1 76 76 VRB 5 7 30.42 1030 10 16 0.00 0.00
11:15 pm 23:15 Partly Cloudy 41 5 34 1 76 76 NW 6 9 30.41 1030 10 16 0.00 0.00
11:35 pm 23:35 Clear 39 4 32 0 75 75 VRB 6 9 30.42 1030 10 16 0.00 0.00
11:55 pm 23:55 Clear 39 4 30 -1 70 70 VRB 6 9 30.43 1030 10 16 0.00 0.00

Powered by AerisWeather